GW4045 Weather Reports


Display with metric or nautical units.
time (UTC)temp
F
wind
direction
speed
MPH
gust
MPH
rain 1hr
in
rain 24hr
in
rain mn
in
humidity
%
barometer
mb
20260507023038 81 205 1.0 2.0 0.00 0.00 0.00 34 1010.7
20260507021553 82 206 1.0 3.0 0.00 0.00 0.00 32 1010.3
20260507020045 82 128 0.0 7.0 0.00 0.00 0.00 31 1010.4
20260507014539 82 100 4.0 9.0 0.00 0.00 0.00 29 1010.3
20260507013041 83 134 6.0 11.0 0.00 0.00 0.00 30 1010.3
20260507011538 83 121 7.0 10.0 0.00 0.00 0.00 29 1010.2
20260507010043 84 101 5.0 12.0 0.00 0.00 0.00 28 1010.3
20260507004544 84 96 7.0 11.0 0.00 0.00 0.00 27 1010.3
20260507003044 85 141 6.0 12.0 0.00 0.00 0.00 27 1010.2
20260507001540 85 78 8.0 13.0 0.00 0.00 0.00 26 1010.2
20260507000038 85 96 7.0 13.0 0.00 0.00 0.00 24 1010.0
20260506234548 85 92 7.0 14.0 0.00 0.00 0.00 26 1010.1
20260506233036 85 76 7.0 14.0 0.00 0.00 0.00 26 1010.1
20260506231541 85 104 7.0 14.0 0.00 0.00 0.00 26 1010.2
20260506230043 85 99 8.0 13.0 0.00 0.00 0.00 26 1010.4
20260506224537 85 120 6.0 14.0 0.00 0.00 0.00 27 1010.7
20260506223036 85 110 8.0 15.0 0.00 0.00 0.00 28 1010.9
20260506221541 85 121 8.0 13.0 0.00 0.00 0.00 27 1010.9
20260506220045 85 112 8.0 12.0 0.00 0.00 0.00 27 1011.3
20260506214543 85 103 7.0 13.0 0.00 0.00 0.00 27 1011.5
20260506213036 84 111 7.0 13.0 0.00 0.00 0.00 27 1011.7
20260506211536 84 101 7.0 11.0 0.00 0.00 0.00 27 1011.8
20260506210045 84 127 5.0 10.0 0.00 0.00 0.00 30 1012.1
20260506204552 83 127 6.0 13.0 0.00 0.00 0.00 29 1012.4
20260506203040 84 138 6.0 11.0 0.00 0.00 0.00 29 1012.6
20260506201546 83 91 6.0 12.0 0.00 0.00 0.00 28 1012.9
20260506200036 84 100 4.0 11.0 0.00 0.00 0.00 29 1013.1
20260506194549 83 124 5.0 10.0 0.00 0.00 0.00 31 1013.4
20260506193041 82 106 4.0 10.0 0.00 0.00 0.00 30 1013.5
20260506191540 83 154 3.0 11.0 0.00 0.00 0.00 35 1013.7
20260506190038 82 126 2.0 8.0 0.00 0.00 0.00 32 1013.9
20260506184541 81 170 3.0 8.0 0.00 0.00 0.00 34 1013.9
20260506183059 82 74 4.0 7.0 0.00 0.00 0.00 35 1014.1
20260506181552 80 84 1.0 4.0 0.00 0.00 0.00 31 1014.3
20260506180041 79 51 4.0 8.0 0.00 0.00 0.00 31 1014.4
20260506174536 79 159 3.0 7.0 0.00 0.00 0.00 35 1014.3
20260506173037 77 29 3.0 8.0 0.00 0.00 0.00 34 1014.4
20260506171547 77 104 2.0 9.0 0.00 0.00 0.00 37 1014.3
20260506170047 76 171 1.0 4.0 0.00 0.00 0.00 37 1014.5
20260506164546 75 203 2.0 6.0 0.00 0.00 0.00 38 1014.6
20260506163046 74 240 2.0 7.0 0.00 0.00 0.00 40 1014.8
20260506161551 72 291 2.0 6.0 0.00 0.00 0.00 42 1014.7
20260506160047 71 251 0.0 4.0 0.00 0.00 0.00 45 1014.6
20260506154545 70 249 2.0 6.0 0.00 0.00 0.00 47 1014.6
20260506153039 68 257 3.0 6.0 0.00 0.00 0.00 48 1014.6
20260506151600 67 327 3.0 6.0 0.00 0.00 0.00 50 1014.6
20260506150045 66 323 4.0 8.0 0.00 0.00 0.00 52 1014.5
20260506144544 65 298 4.0 7.0 0.00 0.00 0.00 55 1014.6
20260506143048 63 294 3.0 7.0 0.00 0.00 0.00 58 1014.5
20260506141536 61 311 3.0 7.0 0.00 0.00 0.00 64 1014.3
20260506140056 59 286 2.0 4.0 0.00 0.00 0.00 69 1014.2
20260506134545 56 295 2.0 3.0 0.00 0.00 0.00 71 1014.0
20260506133047 55 277 1.0 3.0 0.00 0.00 0.00 70 1013.7
20260506131539 54 275 1.0 3.0 0.00 0.00 0.00 69 1013.6
20260506130039 54 283 2.0 3.0 0.00 0.00 0.00 69 1013.3
20260506124537 54 267 2.0 3.0 0.00 0.00 0.00 68 1013.1
20260506123036 55 248 1.0 2.0 0.00 0.00 0.00 68 1012.9
20260506121543 55 278 1.0 2.0 0.00 0.00 0.00 67 1012.8
20260506120043 55 278 1.0 3.0 0.00 0.00 0.00 67 1012.8
20260506114542 55 260 1.0 3.0 0.00 0.00 0.00 66 1012.8
20260506113045 56 276 2.0 3.0 0.00 0.00 0.00 66 1012.7
20260506111542 55 266 2.0 3.0 0.00 0.00 0.00 65 1012.5
20260506110050 56 273 2.0 3.0 0.00 0.00 0.00 64 1012.5
20260506104537 56 271 2.0 3.0 0.00 0.00 0.00 62 1012.6
20260506103041 58 269 1.0 3.0 0.00 0.00 0.00 60 1012.5
20260506101552 59 270 2.0 4.0 0.00 0.00 0.00 58 1012.4
20260506100046 60 296 3.0 9.0 0.00 0.00 0.00 57 1012.5
20260506094547 60 306 5.0 9.0 0.00 0.00 0.00 58 1012.4
20260506093036 60 286 3.0 8.0 0.00 0.00 0.00 58 1012.4
20260506091536 60 292 4.0 8.0 0.00 0.00 0.00 58 1012.5
20260506090037 59 295 4.0 7.0 0.00 0.00 0.00 59 1012.4
20260506084539 59 310 3.0 6.0 0.00 0.00 0.00 59 1012.5
20260506083041 59 284 2.0 3.0 0.00 0.00 0.00 59 1012.7
20260506081536 59 281 2.0 4.0 0.00 0.00 0.00 57 1012.7
20260506073046 62 315 2.0 5.0 0.00 0.00 0.00 51 1012.5
20260506071555 63 317 2.0 5.0 0.00 0.00 0.00 49 1012.5
20260506061541 65 306 3.0 8.0 0.00 0.00 0.00 48 1011.9
20260506044542 68 314 5.0 11.0 0.00 0.00 0.00 44 1010.7
20260506043037 68 332 8.0 14.0 0.00 0.00 0.00 43 1010.5
20260506041546 68 352 9.0 15.0 0.00 0.00 0.00 42 1010.3
20260506040035 69 309 11.0 17.0 0.00 0.00 0.00 42 1010.0
20260506034545 70 319 10.0 19.0 0.00 0.00 0.00 41 1009.8
20260506033041 70 329 12.0 20.0 0.00 0.00 0.00 40 1009.5
20260506031536 70 332 13.0 17.0 0.00 0.00 0.00 39 1009.2
20260506030036 71 332 10.0 19.0 0.00 0.00 0.00 38 1008.9
20260506024540 72 342 8.0 18.0 0.00 0.00 0.00 36 1008.7